Starlink 11441

operational
NORAD ID: 62413 Int'l Des: 2024-249 Owner: SPXS Country: US Constellation: starlink
LEOCIRCULAR

Starlink 11441について

説明を読み込み中...

リアルタイム位置

3D地球を読み込み中...

次回通過

高度履歴

Altitude vs Time

uPlot chart will show altitude changes over time

軌道要素

1 62413U 24249E 25257.11821101 .00219546 00000-0 16611-2 0 9997
2 62413 43.0015 151.6916 0004724 272.9575 87.0752 15.70953835 41712
Epoch: Sep 14, 2025 • Age: 37 hours

現在のステータス

高度 354.8 km
速度 7.70 km/s
衛星直下点 11.47°N, 72.83°E
打ち上げ日 Dec 23, 2024
運用期間 0.7 years
タイプ internet

技術仕様

分類 Payload
質量 960.00 kg
乾燥質量 910.00 kg
総質量 960.00 kg
長さ 0.30 m
直径 4.10 m
スパン 29.00 m
形状 Box + pan
製造者 SPXS
バスタイプ Starlink V2MD
フェーズステータス In Orbit
所有者/国 SPXS/US

大規模コンステレーション

Loading constellations...